Weather History for KFNB - March, 2014

Change the Weather History Date:

Wednesday, March 19, 2014

  Actual Average Record
Temperature  
Mean Temperature 44 °F -  
Max Temperature 55 °F 53 °F 77 °F (1976)
Min Temperature 33 °F 31 °F 5 °F (1965)
Degree Days  
Heating Degree Days 22    
Moisture  
Dew Point 26 °F    
Average Humidity 59    
Maximum Humidity 85    
Minimum Humidity 31    
Precipitation  
Precipitation 0.00 in - - ()
Sea Level Pressure  
Sea Level Pressure 30.02 in    
Wind  
Wind Speed 17 mph (NW)    
Max Wind Speed 23 mph    
Max Gust Speed 33 mph    
Visibility 10 miles    
Events Snow    
Averages and records for this station are not official NWS values.
T = Trace of Precipitation, MM = Missing Value Source: NWS Daily Summary

Daily Weather History Graph

Daily Weather History Graph

Search for Another Location

Airport or City:

Trip Planner

Search our weather history database for the weather conditions in past years. The results will help you decide how hot, cold, wet, or windy it might be!

Date:

Astronomy

Mar. 19, 2014 Rise Set
Actual Time 7:27 AM CDT 7:33 PM CDT
Civil Twilight 7:00 AM CDT 8:00 PM CDT
Nautical Twilight 6:28 AM CDT 8:32 PM CDT
Astronomical Twilight 5:56 AM CDT 9:04 PM CDT
Moon 10:53 PM CDT (3/19) 8:53 AM CDT (3/19)
Length of Visible Light 13h 00m
Length of Day
12h 06m
Waning Gibbous, 91% of the Moon is Illuminated
Mar 19
Waning Gibbous
Mar 23
Last Quarter
Mar 30
New
Apr 7
First Quarter
Apr 15
Full

Hourly Weather History & Observations

Time (CDT) Temp. Windchill Dew Point Humidity Pressure Visibility Wind Dir Wind Speed Gust Speed Precip Events Conditions
12:53 AM 36.0 °F 25.0 °F 28.9 °F 76% 29.78 in 10.0 mi NNW 20.7 mph 29.9 mph N/A   Overcast
1:53 AM 34.0 °F 23.0 °F 28.0 °F 79% 29.81 in 10.0 mi NNW 18.4 mph 29.9 mph N/A   Overcast
2:53 AM 34.0 °F 24.6 °F 27.0 °F 75% 29.85 in 10.0 mi NNW 13.8 mph 24.2 mph N/A   Overcast
3:31 AM 33.1 °F 21.9 °F 28.9 °F 85% 29.86 in 4.0 mi NW 18.4 mph 25.3 mph 0.00 in Snow Light Snow
3:53 AM 33.1 °F 21.2 °F 28.0 °F 82% 29.88 in 8.0 mi NNW 20.7 mph 28.8 mph 0.00 in   Overcast
4:05 AM 34.0 °F 21.8 °F 28.0 °F 79% 29.88 in 10.0 mi NNW 23.0 mph 32.2 mph N/A   Overcast
4:53 AM 35.1 °F 24.8 °F 28.9 °F 78% 29.92 in 10.0 mi NNW 17.3 mph 26.5 mph N/A   Overcast
5:09 AM 35.1 °F 23.5 °F 30.0 °F 82% 29.92 in 9.0 mi NW 21.9 mph 26.5 mph N/A   Overcast
5:53 AM 35.1 °F 23.8 °F 28.9 °F 78% 29.97 in 10.0 mi NW 20.7 mph 25.3 mph N/A   Overcast
6:53 AM 35.1 °F 24.5 °F 28.0 °F 76% 30.00 in 10.0 mi NNW 18.4 mph 33.4 mph N/A   Overcast
7:53 AM 35.1 °F 24.8 °F 27.0 °F 72% 30.03 in 10.0 mi NW 17.3 mph - N/A   Overcast
8:53 AM 35.1 °F 24.8 °F 26.1 °F 70% 30.05 in 10.0 mi NNW 17.3 mph 27.6 mph N/A   Overcast
9:53 AM 36.0 °F 26.0 °F 26.1 °F 67% 30.09 in 10.0 mi NW 17.3 mph - N/A   Mostly Cloudy
10:17 AM 37.0 °F 27.4 °F 26.1 °F 65% 30.08 in 10.0 mi NW 17.3 mph 25.3 mph N/A   Partly Cloudy
10:53 AM 39.0 °F 29.9 °F 25.0 °F 57% 30.12 in 10.0 mi NNW 17.3 mph 25.3 mph N/A   Clear
11:53 AM 43.0 °F 35.4 °F 26.1 °F 51% 30.12 in 10.0 mi NNW 16.1 mph 24.2 mph N/A   Clear
12:53 PM 46.0 °F 39.9 °F 26.1 °F 46% 30.14 in 10.0 mi NW 13.8 mph 24.2 mph N/A   Clear
1:53 PM 48.9 °F - 24.1 °F 38% 30.12 in 10.0 mi WNW 16.1 mph 24.2 mph N/A   Clear
2:53 PM 51.1 °F - 23.0 °F 33% 30.10 in 10.0 mi NW 15.0 mph 23.0 mph N/A   Clear
3:53 PM 53.1 °F - 23.0 °F 31% 30.09 in 10.0 mi WNW 17.3 mph - N/A   Clear
4:53 PM 54.0 °F - 24.1 °F 31% 30.07 in 10.0 mi West 15.0 mph 23.0 mph N/A   Clear
5:53 PM 54.0 °F - 24.1 °F 31% 30.08 in 10.0 mi WNW 16.1 mph - N/A   Scattered Clouds
6:53 PM 51.1 °F - 24.1 °F 35% 30.08 in 10.0 mi WNW 5.8 mph - N/A   Partly Cloudy
7:53 PM 48.0 °F - 23.0 °F 37% 30.09 in 10.0 mi West 5.8 mph - N/A   Scattered Clouds
8:53 PM 43.0 °F - 24.1 °F 47% 30.10 in 10.0 mi Calm Calm - N/A   Scattered Clouds
9:53 PM 41.0 °F 38.0 °F 24.1 °F 51% 30.10 in 10.0 mi South 4.6 mph - N/A   Clear
10:53 PM 39.0 °F 34.0 °F 24.1 °F 55% 30.09 in 10.0 mi SSW 6.9 mph - N/A   Clear
11:53 PM 37.9 °F 35.5 °F 24.1 °F 57% 30.09 in 10.0 mi South 3.5 mph - N/A   Clear